Regional Weather Roundup
Issued by NWS

Home | Current Version | Previous Version | Graphics & Text | Print | Product List | Glossary On
Versions: 1 2 3 4 5 6 7 8 9 10 11 12 13 14 15 16 17 18 19 20 21 22 23 24 25 26 27 28 29 30 31 32 33 34 35 36 37 38 39 40 41 42 43 44 45 46 47 48 49 50
000
ASUS43 KLOT 312312
RWRIL

ILLINOIS REGIONAL WEATHER ROUNDUP
NATIONAL WEATHER SERVICE CHICAGO/ROMEOVILLE IL
600 PM CDT FRI JUL 31 2015

NOTE: "FAIR" INDICATES FEW OR NO CLOUDS BELOW 12,000 FEET WITH NO
SIGNIFICANT WEATHER AND/OR OBSTRUCTIONS TO VISIBILITY.

* THESE STATIONS ARE NOT UNDER NWS QUALITY CONTROL. THEY ALSO MAY NOT
  REPORT WEATHER SUCH AS PRECIPITATION OR FOG.

ILZ001-002-007-009-015-016-024-010000-
NORTHWEST ILLINOIS

CITY           SKY/WX    TMP DP  RH WIND       PRES   REMARKS
MOLINE         SUNNY     85  53  33 NW16G24   30.00F HX  83
STERLING*      SUNNY     82  61  47 W15G21    29.95F HX  83
SAVANNA*       SUNNY     83  54  36 W10       29.98F HX  82
$$

ILZ003-004-008-010-011-017-018-010000-
NORTH CENTRAL ILLINOIS

CITY           SKY/WX    TMP DP  RH WIND       PRES   REMARKS
ROCKFORD       SUNNY     83  47  28 NW16G26   29.97F HX  81
FREEPORT*      SUNNY     80  53  38 NW15G25   29.99S HX  80
ROCHELLE*      SUNNY     82  55  39 NW16G23   29.97F HX  81
DE KALB*       SUNNY     81  55  41 NW14      29.97F HX  81
PERU*          SUNNY     83  53  35 NW17      29.98F HX  81
$$

ILZ005-006-012>014-019>023-010000-
NORTHEAST ILLINOIS

CITY           SKY/WX    TMP DP  RH WIND       PRES   REMARKS
CHICAGO-OHARE  MOSUNNY   84  49  29 NW18G25   29.93S HX  82
CHICAGO-MIDWAY MOSUNNY   86  46  24 NW16G26   29.93S HX  83
AURORA         SUNNY     82  51  34 NW15G23   29.96S HX  81
LANSING*       SUNNY     84  47  28 NW13G22   29.94S HX  82
JOLIET*        SUNNY     85  54  34 NW12G17   29.95F HX  83
WAUKEGAN       SUNNY     80  49  33 W10G20    29.93S
DUPAGE AIRPORT SUNNY     83  47  28 NW17G25   29.95S HX  81
KANKAKEE*      SUNNY     85  56  37 W9G21     29.96S HX  83
WHEELING       SUNNY     83  46  27 NW17G23   29.94F HX  81
MORRIS*        SUNNY     82  57  42 NW14G22   29.95S HX  82
ROMEOVILLE*    SUNNY     83  50  31 NW14G25   29.95F HX  81
NORTHERLY ISL    N/A     83  45  26 W18         N/A  HX  81
$$

LMZ740>746-010000-
SOUTHERN LAKE MICHIGAN

STATION/POSITION SKY/WX   TEMP    WIND        PRES    VSBY  WAVE
                          AIR SEA DIR/SP/G                  HT/PER
                          (F)     (DEG/KT/KT) (MB)    (MI)  (FT/S)
HARRISON CRIB              81     310/ 20/ 24   N/A
BURNHAM HARBOR             83     300/ 12/ 20   N/A
CALUMET HARBOR             85     280/  7/ 19   N/A
BURNS HARBOR               78     330/  9/ 12 1013.9S
MICHIGAN CITY              78     310/ 15/ 17   N/A
MICHIGAN CITY 6N           76 74  350/ 12/ 16   N/A           3/ 4
ST. JOSEPH                 74 74   10/  6/  8   N/A           2/ 3
$$

ILZ025>027-034>036-040-047-049-050-058-095>099-010000-
WEST-CENTRAL ILLINOIS

CITY           SKY/WX    TMP DP  RH WIND       PRES   REMARKS
QUINCY         SUNNY     86  65  49 NW7       30.03F HX  88
GALESBURG*     SUNNY     84  62  47 NW6       30.02F HX  85
MACOMB*        SUNNY     85  64  49 NW8       30.04F HX  87
JACKSONVILLE*  SUNNY     88  70  54 W7        30.02F HX  93
PITTSFIELD*    SUNNY     87  66  50 W7        30.05S HX  89
$$

ILZ028>032-037-038-041>044-048-051>054-059>061-010000-
CENTRAL ILLINOIS

CITY           SKY/WX    TMP DP  RH WIND       PRES   REMARKS
PONTIAC        SUNNY     83  62  49 NW13G18   29.98F HX  84
BLOOMINGTON    SUNNY     87  59  38 NW16      30.02S HX  86
DECATUR        SUNNY     88  58  36 N9        30.01S HX  87
PEORIA         SUNNY     88  60  38 NW6       30.00F HX  87
LACON*         SUNNY     84  60  43 NW9       29.98S HX  84
LINCOLN*       SUNNY     88  60  38 N6        29.99S HX  87
SPRINGFIELD    MOSUNNY   86  68  54 W6        30.01F HX  89
TAYLORVILLE    SUNNY     84  70  61 W8        30.01F HX  88
$$

ILZ033-039-045-046-055>057-062-063-010000-
EAST-CENTRAL ILLINOIS

CITY           SKY/WX    TMP DP  RH WIND       PRES   REMARKS
CHAMPAIGN      SUNNY     84  61  45 NW8       30.00F HX  84
DANVILLE*      SUNNY     82  61  47 NW9       29.96F HX  83
RANTOUL*       SUNNY     87  63  44 W13       29.99F HX  87
MATTOON        SUNNY     87  57  35 N8        30.00F HX  86
PARIS*         SUNNY     85  58  39 NW6       30.00F HX  84
$$

ILZ079-100>102-010000-
SOUTHWEST ILLINOIS

CITY           SKY/WX    TMP DP  RH WIND       PRES   REMARKS
BELLEVILLE     SUNNY     90  63  39 VRB3      30.01F HX  91
CAHOKIA*       SUNNY     93  55  27 NW6       30.01F HX  91
SPARTA*        SUNNY     89  65  46 N3        30.04F HX  91
$$

ILZ064>066-069>071-074>076-080>082-084>086-088>090-092>094-010000-
SOUTH-CENTRAL ILLINOIS

CITY           SKY/WX    TMP DP  RH WIND       PRES   REMARKS
CARBONDALE     SUNNY     89  66  46 NW3       30.02F HX  91
CAIRO*         SUNNY     87  70  57 NW6       30.02F HX  92
EFFINGHAM*     SUNNY     88  58  36 W10       30.02F HX  87
MARION         MOSUNNY   88  66  48 W6        30.03F HX  90
MT. VERNON     SUNNY     88  64  45 CALM      30.02F HX  89
CENTRALIA*     SUNNY     88  63  42 NW8       30.02F HX  88
SALEM*         SUNNY     89  63  41 NW6       30.03S HX  90
METROPOLIS*    SUNNY     87  69  53 NW3       30.03F HX  91
$$

ILZ067-068-072-073-078-083-087-091-010000-
SOUTHEAST ILLINOIS

CITY           SKY/WX    TMP DP  RH WIND       PRES   REMARKS
LAWRENCEVILLE  SUNNY     88  64  44 NW12      30.00F HX  89
FLORA*         SUNNY     88  63  43 NW7       30.01F HX  89
FAIRFIELD*     SUNNY     87  66  50 NW5       30.00F HX  89
HARRISBURG*    SUNNY     88  64  44 NW5       30.03F HX  90
ROBINSON*      PTSUNNY   86  67  53 W6        30.01F HX  89
CARMI*         SUNNY     87  62  43 CALM      30.01S HX  87
$$

ABBREVIATIONS USED IN REMARKS
   TC - TEMPERATURE IN CELSIUS
  WCI - WIND CHILL INDEX
   HX - HEAT INDEX
  VSB - VISIBILITY
$$



USA.gov is the U.S. government's official web portal to all federal, state and local government web resources and services.